TimeEST,TemperatureF,Dew PointF,Humidity,Sea Level PressureIn,VisibilityMPH,Wind Direction,Wind SpeedMPH,Gust SpeedMPH,PrecipitationIn,Events,Conditions,WindDirDegrees,DateUTC
12:54 AM,32.0,8.6,38,-9999,95.0,West,31.1,-,N/A,,Partly Cloudy,260,2012-12-04 05:54:00
1:48 AM,32.0,17.6,55,-9999,95.0,West,36.8,-,N/A,,Partly Cloudy,260,2012-12-04 06:48:00
2:55 AM,32.0,14.0,48,-9999,95.0,West,36.8,-,N/A,,Partly Cloudy,260,2012-12-04 07:55:00
3:51 AM,32.0,15.8,51,-9999,95.0,West,35.7,-,N/A,,Partly Cloudy,260,2012-12-04 08:51:00
4:50 AM,33.8,17.6,52,-9999,95.0,West,44.9,-,N/A,,Scattered Clouds,260,2012-12-04 09:50:00
5:58 AM,33.8,30.2,87,-9999,95.0,West,48.3,52.9,N/A,,Mostly Cloudy,270,2012-12-04 10:58:00
6:53 AM,35.6,35.6,100,-9999,0.0,West,41.4,-,N/A,Fog,Fog,270,2012-12-04 11:53:00
7:51 AM,35.6,35.6,100,-9999,0.0,West,35.7,-,N/A,Fog,Fog,270,2012-12-04 12:51:00
8:48 AM,35.6,35.6,100,-9999,0.0,West,36.8,-,N/A,Fog,Fog,260,2012-12-04 13:48:00
9:48 AM,35.6,35.6,100,-9999,0.0,WSW,43.7,50.6,N/A,Fog,Fog,250,2012-12-04 14:48:00
10:50 AM,37.4,37.4,100,-9999,0.0,WSW,49.5,57.5,N/A,Fog,Fog,250,2012-12-04 15:50:00
11:52 AM,37.4,37.4,100,-9999,0.0,West,44.9,50.6,N/A,Fog,Fog,260,2012-12-04 16:52:00
12:50 PM,39.2,39.2,100,-9999,0.0,West,42.6,-,N/A,Fog,Fog,260,2012-12-04 17:50:00
1:49 PM,37.4,37.4,100,-9999,0.1,West,49.5,-,N/A,Fog,Fog,260,2012-12-04 18:49:00
2:51 PM,39.2,39.2,100,-9999,0.0,WSW,50.6,59.8,N/A,Fog,Fog,250,2012-12-04 19:51:00
3:49 PM,39.2,39.2,100,-9999,0.0,WSW,55.2,62.1,N/A,Fog,Fog,250,2012-12-04 20:49:00
4:51 PM,39.2,39.2,100,-9999,0.0,WSW,52.9,64.4,N/A,Fog,Fog,240,2012-12-04 21:51:00
5:48 PM,39.2,39.2,100,-9999,0.0,WSW,55.2,64.4,N/A,Fog,Fog,240,2012-12-04 22:48:00
6:47 PM,39.2,39.2,100,-9999,0.0,WSW,54.1,63.3,N/A,Fog,Fog,240,2012-12-04 23:47:00
7:48 PM,37.4,37.4,100,-9999,0.0,SW,55.2,66.7,N/A,Fog,Fog,230,2012-12-05 00:48:00
8:49 PM,37.4,37.4,100,-9999,0.0,WSW,42.6,55.2,N/A,Fog,Fog,240,2012-12-05 01:49:00
9:53 PM,35.6,35.6,100,-9999,0.0,SW,49.5,65.6,N/A,Fog,Fog,230,2012-12-05 02:53:00
10:56 PM,37.4,37.4,100,-9999,0.0,SW,55.2,65.6,N/A,Fog,Fog,230,2012-12-05 03:56:00
11:55 PM,37.4,37.4,100,-9999,0.0,WSW,57.5,69.0,N/A,Fog,Fog,240,2012-12-05 04:55:00